| time (UTC) | temp F | wind direction | speed MPH | gust MPH | rain 1hr in | rain 24hr in | rain mn in | humidity % | barometer mb |
| 20260505100014 | 0 | 0.0 | 0.0 | 0.00 | 0.00 | 0.00 | 1015.8 | ||
| 20260505100009 | 0 | 0.0 | 0.0 | 0.00 | 0.00 | 0.00 | 1015.9 | ||
| 20260505095008 | 0 | 0.0 | 0.0 | 0.00 | 0.00 | 0.00 | 1015.7 | ||
| 20260505094507 | 0 | 0.0 | 0.0 | 0.00 | 0.00 | 0.00 | 1015.8 | ||
| 20260505094003 | 0 | 0.0 | 0.0 | 0.00 | 0.00 | 0.00 | 1015.8 | ||
| 20260505093915 | 0 | 0.0 | 0.0 | 0.00 | 0.00 | 0.00 | 1015.7 | ||
| 20260505092915 | 0 | 0.0 | 0.0 | 0.00 | 0.00 | 0.00 | 1015.8 | ||
| 20260505092415 | 0 | 0.0 | 0.0 | 0.00 | 0.00 | 0.00 | 1015.8 | ||
| 20260505091905 | 0 | 0.0 | 0.0 | 0.00 | 0.00 | 0.00 | 1015.7 | ||
| 20260505091359 | 0 | 0.0 | 0.0 | 0.00 | 0.00 | 0.00 | 1015.7 | ||
| 20260505090809 | 0 | 0.0 | 0.0 | 0.00 | 0.00 | 0.00 | 1015.6 | ||
| 20260505090304 | 0 | 0.0 | 0.0 | 0.00 | 0.00 | 0.00 | 1015.6 | ||
| 20260505085717 | 0 | 0.0 | 0.0 | 0.00 | 0.00 | 0.00 | 1015.6 | ||
| 20260505085211 | 0 | 0.0 | 0.0 | 0.00 | 0.00 | 0.00 | 1015.5 | ||
| 20260505084712 | 55 | 344 | 0.0 | 0.0 | 0.00 | 0.00 | 0.00 | 76 | 1015.5 |
| 20260505084706 | 55 | 344 | 0.0 | 0.0 | 0.00 | 0.00 | 0.00 | 76 | 1015.5 |
| 20260505083637 | 55 | 344 | 0.0 | 0.0 | 0.00 | 0.00 | 0.00 | 76 | 1015.5 |
| 20260505083633 | 55 | 344 | 0.0 | 0.0 | 0.00 | 0.00 | 0.00 | 76 | 1015.4 |
| 20260505082632 | 56 | 344 | 0.0 | 0.0 | 0.00 | 0.00 | 0.00 | 76 | 1015.4 |
| 20260505082134 | 57 | 339 | 0.0 | 0.0 | 0.00 | 0.00 | 0.00 | 75 | 1015.5 |
| 20260505082130 | 56 | 344 | 0.0 | 0.0 | 0.00 | 0.00 | 0.00 | 76 | 1015.4 |
| 20260505081128 | 57 | 339 | 0.0 | 0.0 | 0.00 | 0.00 | 0.00 | 75 | 1015.4 |
| 20260505080630 | 57 | 116 | 0.0 | 0.0 | 0.00 | 0.00 | 0.00 | 75 | 1015.4 |
| 20260505080130 | 58 | 116 | 0.0 | 0.0 | 0.00 | 0.00 | 0.00 | 74 | 1015.3 |
| 20260505075629 | 58 | 116 | 0.0 | 0.0 | 0.00 | 0.00 | 0.00 | 73 | 1015.2 |
| 20260505075130 | 58 | 116 | 0.0 | 0.0 | 0.00 | 0.00 | 0.00 | 73 | 1015.2 |
| 20260505074628 | 58 | 116 | 0.0 | 0.0 | 0.00 | 0.00 | 0.00 | 73 | 1015.2 |
| 20260505074129 | 58 | 126 | 0.0 | 0.0 | 0.00 | 0.00 | 0.00 | 72 | 1015.2 |
| 20260505073629 | 58 | 140 | 0.0 | 0.0 | 0.00 | 0.00 | 0.00 | 72 | 1015.1 |
| 20260505073129 | 59 | 129 | 0.0 | 0.0 | 0.00 | 0.00 | 0.00 | 72 | 1015.1 |
| 20260505072631 | 59 | 140 | 0.0 | 0.0 | 0.00 | 0.00 | 0.00 | 72 | 1015.2 |
| 20260505072129 | 59 | 141 | 0.0 | 0.0 | 0.00 | 0.00 | 0.00 | 71 | 1015.2 |
| 20260505071629 | 59 | 139 | 0.0 | 0.0 | 0.00 | 0.00 | 0.00 | 71 | 1015.1 |
| 20260505071129 | 59 | 133 | 0.0 | 0.0 | 0.00 | 0.00 | 0.00 | 71 | 1015.1 |
| 20260505070628 | 59 | 112 | 0.0 | 0.0 | 0.00 | 0.00 | 0.00 | 71 | 1015.1 |
| 20260505070128 | 59 | 262 | 0.0 | 2.0 | 0.00 | 0.00 | 0.00 | 71 | 1015.1 |
| 20260505065627 | 59 | 222 | 0.0 | 2.0 | 0.00 | 0.00 | 0.00 | 71 | 1015.0 |
| 20260505065131 | 60 | 126 | 0.0 | 0.0 | 0.00 | 0.00 | 0.00 | 71 | 1015.1 |
| 20260505064627 | 60 | 144 | 0.0 | 0.0 | 0.00 | 0.00 | 0.00 | 70 | 1015.1 |
| 20260505064127 | 60 | 118 | 0.0 | 0.0 | 0.00 | 0.00 | 0.00 | 70 | 1015.1 |
| 20260505063626 | 60 | 92 | 0.0 | 0.0 | 0.00 | 0.00 | 0.00 | 70 | 1015.0 |
| 20260505063128 | 60 | 75 | 0.0 | 0.0 | 0.00 | 0.00 | 0.00 | 70 | 1015.0 |
| 20260505062628 | 60 | 238 | 0.0 | 0.0 | 0.00 | 0.00 | 0.00 | 69 | 1015.0 |
| 20260505062128 | 60 | 124 | 0.0 | 0.0 | 0.00 | 0.00 | 0.00 | 69 | 1015.1 |
| 20260505061627 | 60 | 148 | 0.0 | 0.0 | 0.00 | 0.00 | 0.00 | 69 | 1015.0 |
| 20260505061125 | 61 | 266 | 0.0 | 3.0 | 0.00 | 0.00 | 0.00 | 69 | 1015.1 |
| 20260505060626 | 61 | 110 | 0.0 | 3.0 | 0.00 | 0.00 | 0.00 | 68 | 1015.1 |
| 20260505060232 | 61 | 212 | 0.0 | 3.0 | 0.00 | 0.00 | 0.00 | 68 | 1015.1 |
| 20260505060128 | 61 | 133 | 0.0 | 2.0 | 0.00 | 0.00 | 0.00 | 68 | 1015.1 |
| 20260505060124 | 61 | 128 | 0.0 | 2.0 | 0.00 | 0.00 | 0.00 | 68 | 1015.1 |
| 20260505054621 | 61 | 214 | 0.0 | 3.0 | 0.00 | 0.00 | 0.00 | 68 | 1015.1 |
| 20260505054127 | 62 | 170 | 1.0 | 5.0 | 0.00 | 0.00 | 0.00 | 68 | 1015.1 |
| 20260505054122 | 61 | 231 | 0.0 | 4.0 | 0.00 | 0.00 | 0.00 | 68 | 1015.1 |
| 20260505053120 | 62 | 269 | 0.0 | 5.0 | 0.00 | 0.00 | 0.00 | 68 | 1015.2 |
| 20260505052620 | 62 | 135 | 0.0 | 0.0 | 0.00 | 0.00 | 0.00 | 68 | 1015.3 |
| 20260505052122 | 62 | 142 | 0.0 | 0.0 | 0.00 | 0.00 | 0.00 | 68 | 1015.2 |
| 20260505051621 | 62 | 144 | 0.0 | 5.0 | 0.00 | 0.00 | 0.00 | 68 | 1015.3 |
| 20260505051120 | 62 | 104 | 0.0 | 5.0 | 0.00 | 0.00 | 0.00 | 68 | 1015.4 |
| 20260505050619 | 62 | 110 | 1.0 | 5.0 | 0.00 | 0.00 | 0.00 | 68 | 1015.4 |
| 20260505050124 | 62 | 103 | 1.0 | 6.0 | 0.00 | 0.00 | 0.00 | 67 | 1015.4 |
| 20260505050120 | 62 | 149 | 1.0 | 5.0 | 0.00 | 0.00 | 0.00 | 67 | 1015.4 |
| 20260505041618 | 63 | 149 | 0.0 | 5.0 | 0.00 | 0.00 | 0.00 | 66 | 1015.3 |
| 20260505041123 | 64 | 141 | 2.0 | 8.0 | 0.00 | 0.00 | 0.00 | 65 | 1015.3 |
| 20260505041119 | 63 | 270 | 1.0 | 8.0 | 0.00 | 0.00 | 0.00 | 66 | 1015.2 |
| 20260505040119 | 64 | 271 | 1.0 | 7.0 | 0.00 | 0.00 | 0.00 | 65 | 1015.4 |
| 20260505035619 | 64 | 274 | 1.0 | 6.0 | 0.00 | 0.00 | 0.00 | 65 | 1015.3 |
| 20260505035120 | 64 | 180 | 1.0 | 7.0 | 0.00 | 0.00 | 0.00 | 65 | 1015.3 |
| 20260505034620 | 64 | 203 | 1.0 | 7.0 | 0.00 | 0.00 | 0.00 | 65 | 1015.3 |
| 20260505034118 | 64 | 150 | 1.0 | 8.0 | 0.00 | 0.00 | 0.00 | 65 | 1015.3 |
| 20260505033618 | 64 | 145 | 2.0 | 8.0 | 0.00 | 0.00 | 0.00 | 64 | 1015.3 |
| 20260505033118 | 65 | 276 | 2.0 | 6.0 | 0.00 | 0.00 | 0.00 | 64 | 1015.3 |
| 20260505032619 | 65 | 138 | 1.0 | 6.0 | 0.00 | 0.00 | 0.00 | 64 | 1015.2 |
| 20260505032120 | 65 | 132 | 1.0 | 8.0 | 0.00 | 0.00 | 0.00 | 63 | 1015.2 |
| 20260505031616 | 65 | 127 | 2.0 | 10.0 | 0.00 | 0.00 | 0.00 | 63 | 1015.2 |
| 20260505031118 | 65 | 111 | 2.0 | 8.0 | 0.00 | 0.00 | 0.00 | 62 | 1015.3 |
| 20260505031114 | 65 | 129 | 1.0 | 10.0 | 0.00 | 0.00 | 0.00 | 63 | 1015.2 |
| 20260505030721 | 65 | 319 | 1.0 | 7.0 | 0.00 | 0.00 | 0.00 | 63 | 1015.2 |
| 20260505025611 | 66 | 146 | 2.0 | 8.0 | 0.00 | 0.00 | 0.00 | 62 | 1015.3 |
| 20260505025110 | 66 | 195 | 2.0 | 9.0 | 0.00 | 0.00 | 0.00 | 62 | 1015.3 |
| 20260505024611 | 66 | 148 | 2.0 | 9.0 | 0.00 | 0.00 | 0.00 | 61 | 1015.3 |
| 20260505024109 | 66 | 156 | 3.0 | 8.0 | 0.00 | 0.00 | 0.00 | 61 | 1015.3 |
| 20260505023608 | 67 | 131 | 2.0 | 8.0 | 0.00 | 0.00 | 0.00 | 61 | 1015.2 |
| 20260505023110 | 67 | 240 | 3.0 | 8.0 | 0.00 | 0.00 | 0.00 | 61 | 1015.2 |
| 20260505022608 | 67 | 90 | 3.0 | 12.0 | 0.00 | 0.00 | 0.00 | 60 | 1015.1 |
| 20260505022108 | 67 | 131 | 2.0 | 12.0 | 0.00 | 0.00 | 0.00 | 60 | 1015.1 |
| 20260505021609 | 67 | 148 | 2.0 | 7.0 | 0.00 | 0.00 | 0.00 | 60 | 1015.1 |
| 20260505021108 | 68 | 147 | 2.0 | 8.0 | 0.00 | 0.00 | 0.00 | 60 | 1015.1 |
| 20260505020609 | 68 | 289 | 2.0 | 8.0 | 0.00 | 0.00 | 0.00 | 60 | 1015.1 |
| 20260505020110 | 68 | 28 | 3.0 | 10.0 | 0.00 | 0.00 | 0.00 | 60 | 1015.1 |
| 20260505015610 | 68 | 110 | 2.0 | 10.0 | 0.00 | 0.00 | 0.00 | 59 | 1015.0 |
| 20260505015108 | 68 | 139 | 1.0 | 5.0 | 0.00 | 0.00 | 0.00 | 59 | 1014.9 |
| 20260505014608 | 69 | 180 | 2.0 | 7.0 | 0.00 | 0.00 | 0.00 | 58 | 1014.8 |
| 20260505014108 | 69 | 131 | 2.0 | 13.0 | 0.00 | 0.00 | 0.00 | 57 | 1014.8 |
| 20260505013611 | 69 | 123 | 3.0 | 10.0 | 0.00 | 0.00 | 0.00 | 54 | 1014.7 |
| 20260505013607 | 69 | 159 | 2.0 | 13.0 | 0.00 | 0.00 | 0.00 | 56 | 1014.7 |
| 20260505012606 | 69 | 131 | 3.0 | 10.0 | 0.00 | 0.00 | 0.00 | 53 | 1014.5 |
| 20260505012107 | 70 | 148 | 2.0 | 9.0 | 0.00 | 0.00 | 0.00 | 51 | 1014.4 |
| 20260505011604 | 70 | 319 | 1.0 | 9.0 | 0.00 | 0.00 | 0.00 | 48 | 1014.3 |
| 20260505011104 | 70 | 130 | 0.0 | 7.0 | 0.00 | 0.00 | 0.00 | 46 | 1014.2 |
| 20260505010607 | 70 | 134 | 0.0 | 0.0 | 0.00 | 0.00 | 0.00 | 45 | 1014.2 |
| 20260505010603 | 70 | 142 | 0.0 | 0.0 | 0.00 | 0.00 | 0.00 | 44 | 1013.9 |
| 20260505010208 | 70 | 129 | 0.0 | 0.0 | 0.00 | 0.00 | 0.00 | 44 | 1014.0 |
| 20260505005100 | 71 | 129 | 0.0 | 0.0 | 0.00 | 0.00 | 0.00 | 43 | 1013.8 |
| 20260505004605 | 71 | 146 | 0.0 | 0.0 | 0.00 | 0.00 | 0.00 | 44 | 1013.7 |
| 20260505004110 | 71 | 124 | 0.0 | 0.0 | 0.00 | 0.00 | 0.00 | 44 | 1013.8 |
| 20260505003602 | 71 | 92 | 0.0 | 0.0 | 0.00 | 0.00 | 0.00 | 43 | 1013.7 |
| 20260505003100 | 71 | 120 | 0.0 | 0.0 | 0.00 | 0.00 | 0.00 | 42 | 1013.7 |
| 20260505002600 | 72 | 214 | 0.0 | 0.0 | 0.00 | 0.00 | 0.00 | 42 | 1013.7 |
| 20260505002101 | 72 | 140 | 0.0 | 0.0 | 0.00 | 0.00 | 0.00 | 41 | 1013.6 |
| 20260505001600 | 73 | 110 | 0.0 | 0.0 | 0.00 | 0.00 | 0.00 | 41 | 1013.6 |
| 20260505001104 | 73 | 139 | 0.0 | 0.0 | 0.00 | 0.00 | 0.00 | 40 | 1013.5 |
| 20260505001100 | 73 | 118 | 0.0 | 0.0 | 0.00 | 0.00 | 0.00 | 40 | 1013.6 |
| 20260505000058 | 73 | 126 | 0.0 | 0.0 | 0.00 | 0.00 | 0.00 | 40 | 1013.5 |
| 20260504235603 | 74 | 166 | 0.0 | 0.0 | 0.00 | 0.00 | 0.00 | 39 | 1013.4 |
| 20260504235559 | 74 | 115 | 0.0 | 0.0 | 0.00 | 0.00 | 0.00 | 39 | 1013.4 |
| 20260504234559 | 74 | 118 | 0.0 | 0.0 | 0.00 | 0.00 | 0.00 | 38 | 1013.3 |
| 20260504234058 | 74 | 87 | 1.0 | 5.0 | 0.00 | 0.00 | 0.00 | 38 | 1013.2 |
| 20260504233558 | 75 | 150 | 1.0 | 8.0 | 0.00 | 0.00 | 0.00 | 37 | 1013.2 |
| 20260504233107 | 75 | 290 | 2.0 | 7.0 | 0.00 | 0.00 | 0.00 | 36 | 1013.1 |
| 20260504233101 | 75 | 144 | 2.0 | 8.0 | 0.00 | 0.00 | 0.00 | 37 | 1013.1 |
| 20260504232058 | 75 | 77 | 1.0 | 6.0 | 0.00 | 0.00 | 0.00 | 36 | 1013.1 |
| 20260504231559 | 76 | 139 | 1.0 | 6.0 | 0.00 | 0.00 | 0.00 | 36 | 1013.0 |
| 20260504231102 | 76 | 131 | 1.0 | 7.0 | 0.00 | 0.00 | 0.00 | 35 | 1013.0 |
| 20260504231058 | 76 | 244 | 1.0 | 7.0 | 0.00 | 0.00 | 0.00 | 35 | 1013.0 |
| 20260504230059 | 76 | 135 | 2.0 | 7.0 | 0.00 | 0.00 | 0.00 | 35 | 1012.9 |
| 20260504225558 | 76 | 171 | 1.0 | 7.0 | 0.00 | 0.00 | 0.00 | 35 | 1012.9 |
| 20260504225101 | 76 | 74 | 2.0 | 9.0 | 0.00 | 0.00 | 0.00 | 36 | 1012.9 |
| 20260504224602 | 77 | 144 | 3.0 | 11.0 | 0.00 | 0.00 | 0.00 | 35 | 1012.9 |
| 20260504224058 | 77 | 124 | 2.0 | 11.0 | 0.00 | 0.00 | 0.00 | 34 | 1012.9 |
| 20260504223600 | 77 | 176 | 2.0 | 11.0 | 0.00 | 0.00 | 0.00 | 35 | 1012.9 |
| 20260504223059 | 77 | 139 | 2.0 | 9.0 | 0.00 | 0.00 | 0.00 | 35 | 1012.8 |
| 20260504222557 | 77 | 149 | 2.0 | 8.0 | 0.00 | 0.00 | 0.00 | 34 | 1012.9 |
| 20260504222056 | 78 | 170 | 2.0 | 11.0 | 0.00 | 0.00 | 0.00 | 34 | 1012.9 |
| 20260504221601 | 78 | 103 | 2.0 | 9.0 | 0.00 | 0.00 | 0.00 | 32 | 1012.9 |
| 20260504221556 | 78 | 118 | 2.0 | 11.0 | 0.00 | 0.00 | 0.00 | 33 | 1013.0 |
| 20260504220555 | 79 | 226 | 2.0 | 9.0 | 0.00 | 0.00 | 0.00 | 33 | 1012.8 |
| 20260504220056 | 79 | 180 | 1.0 | 9.0 | 0.00 | 0.00 | 0.00 | 31 | 1012.9 |
| 20260504215556 | 80 | 137 | 1.0 | 7.0 | 0.00 | 0.00 | 0.00 | 31 | 1012.9 |
| 20260504215206 | 81 | 165 | 1.0 | 6.0 | 0.00 | 0.00 | 0.00 | 28 | 1012.9 |
| 20260504215100 | 80 | 128 | 0.0 | 0.0 | 0.00 | 0.00 | 0.00 | 29 | 1012.9 |
| 20260504215056 | 80 | 67 | 0.0 | 0.0 | 0.00 | 0.00 | 0.00 | 30 | 1012.9 |
| 20260504213558 | 81 | 245 | 1.0 | 9.0 | 0.00 | 0.00 | 0.00 | 29 | 1012.9 |
| 20260504213553 | 81 | 179 | 1.0 | 8.0 | 0.00 | 0.00 | 0.00 | 30 | 1013.0 |
| 20260504212556 | 81 | 99 | 2.0 | 13.0 | 0.00 | 0.00 | 0.00 | 28 | 1013.0 |
| 20260504212052 | 82 | 130 | 2.0 | 13.0 | 0.00 | 0.00 | 0.00 | 29 | 1013.0 |
| 20260504211552 | 82 | 165 | 1.0 | 8.0 | 0.00 | 0.00 | 0.00 | 27 | 1013.0 |
| 20260504211059 | 82 | 207 | 0.0 | 4.0 | 0.00 | 0.00 | 0.00 | 28 | 1013.0 |
| 20260504211054 | 82 | 127 | 0.0 | 7.0 | 0.00 | 0.00 | 0.00 | 28 | 1012.9 |
| 20260504210049 | 82 | 142 | 1.0 | 5.0 | 0.00 | 0.00 | 0.00 | 26 | 1013.0 |
| 20260504205550 | 82 | 134 | 1.0 | 5.0 | 0.00 | 0.00 | 0.00 | 27 | 1013.1 |
| 20260504205050 | 82 | 303 | 1.0 | 5.0 | 0.00 | 0.00 | 0.00 | 26 | 1013.1 |
| 20260504204552 | 82 | 306 | 0.0 | 4.0 | 0.00 | 0.00 | 0.00 | 26 | 1013.2 |
| 20260504204049 | 82 | 169 | 1.0 | 5.0 | 0.00 | 0.00 | 0.00 | 26 | 1013.2 |
| 20260504203548 | 81 | 117 | 3.0 | 11.0 | 0.00 | 0.00 | 0.00 | 26 | 1013.2 |
| 20260504203049 | 81 | 84 | 3.0 | 11.0 | 0.00 | 0.00 | 0.00 | 27 | 1013.3 |
| 20260504202547 | 82 | 150 | 1.0 | 8.0 | 0.00 | 0.00 | 0.00 | 27 | 1013.4 |
| 20260504202048 | 81 | 139 | 1.0 | 7.0 | 0.00 | 0.00 | 0.00 | 26 | 1013.3 |
| 20260504201549 | 81 | 328 | 2.0 | 9.0 | 0.00 | 0.00 | 0.00 | 26 | 1013.4 |
| 20260504201054 | 82 | 171 | 2.0 | 10.0 | 0.00 | 0.00 | 0.00 | 26 | 1013.7 |
| 20260504201047 | 81 | 108 | 3.0 | 10.0 | 0.00 | 0.00 | 0.00 | 27 | 1013.6 |
| 20260504200046 | 82 | 129 | 1.0 | 10.0 | 0.00 | 0.00 | 0.00 | 25 | 1013.5 |
| 20260504195546 | 82 | 139 | 0.0 | 0.0 | 0.00 | 0.00 | 0.00 | 29 | 1013.6 |
| 20260504195045 | 81 | 142 | 0.0 | 4.0 | 0.00 | 0.00 | 0.00 | 29 | 1013.6 |
| 20260504194552 | 81 | 103 | 2.0 | 10.0 | 0.00 | 0.00 | 0.00 | 27 | 1013.5 |
| 20260504194547 | 81 | 204 | 1.0 | 10.0 | 0.00 | 0.00 | 0.00 | 29 | 1013.6 |
| 20260504193546 | 80 | 207 | 2.0 | 9.0 | 0.00 | 0.00 | 0.00 | 29 | 1013.6 |
| 20260504193046 | 81 | 318 | 2.0 | 9.0 | 0.00 | 0.00 | 0.00 | 28 | 1013.8 |
| 20260504192548 | 81 | 231 | 2.0 | 14.0 | 0.00 | 0.00 | 0.00 | 30 | 1013.7 |
| 20260504192046 | 81 | 126 | 1.0 | 14.0 | 0.00 | 0.00 | 0.00 | 28 | 1013.9 |
| 20260504191546 | 81 | 134 | 0.0 | 4.0 | 0.00 | 0.00 | 0.00 | 28 | 1014.0 |
| 20260504191045 | 81 | 27 | 0.0 | 9.0 | 0.00 | 0.00 | 0.00 | 29 | 1014.0 |
| 20260504190551 | 80 | 138 | 1.0 | 9.0 | 0.00 | 0.00 | 0.00 | 30 | 1014.1 |
| 20260504190547 | 81 | 136 | 0.0 | 5.0 | 0.00 | 0.00 | 0.00 | 31 | 1014.3 |
| 20260504185548 | 80 | 39 | 1.0 | 4.0 | 0.00 | 0.00 | 0.00 | 31 | 1014.5 |
| 20260504185544 | 81 | 257 | 0.0 | 5.0 | 0.00 | 0.00 | 0.00 | 31 | 1014.5 |
| 20260504184541 | 80 | 247 | 1.0 | 7.0 | 0.00 | 0.00 | 0.00 | 29 | 1014.3 |
| 20260504184041 | 80 | 161 | 2.0 | 13.0 | 0.00 | 0.00 | 0.00 | 31 | 1014.3 |
| 20260504183539 | 79 | 152 | 2.0 | 13.0 | 0.00 | 0.00 | 0.00 | 31 | 1014.5 |
| 20260504183037 | 80 | 8 | 0.0 | 3.0 | 0.00 | 0.00 | 0.00 | 32 | 1014.5 |
| 20260504182543 | 79 | 155 | 2.0 | 8.0 | 0.00 | 0.00 | 0.00 | 32 | 1014.7 |
| 20260504182539 | 79 | 111 | 1.0 | 8.0 | 0.00 | 0.00 | 0.00 | 31 | 1014.6 |
| 20260504181538 | 79 | 244 | 2.0 | 9.0 | 0.00 | 0.00 | 0.00 | 32 | 1014.7 |
| 20260504181039 | 79 | 211 | 2.0 | 9.0 | 0.00 | 0.00 | 0.00 | 32 | 1014.7 |
| 20260504180537 | 79 | 313 | 2.0 | 8.0 | 0.00 | 0.00 | 0.00 | 33 | 1014.5 |
| 20260504180038 | 78 | 158 | 1.0 | 8.0 | 0.00 | 0.00 | 0.00 | 32 | 1014.6 |
| 20260504175537 | 79 | 106 | 0.0 | 7.0 | 0.00 | 0.00 | 0.00 | 33 | 1014.7 |
| 20260504175037 | 78 | 201 | 1.0 | 9.0 | 0.00 | 0.00 | 0.00 | 33 | 1014.8 |
| 20260504174539 | 78 | 240 | 1.0 | 10.0 | 0.00 | 0.00 | 0.00 | 33 | 1014.9 |
| 20260504174039 | 78 | 110 | 1.0 | 10.0 | 0.00 | 0.00 | 0.00 | 33 | 1015.1 |
| 20260504173538 | 78 | 316 | 1.0 | 6.0 | 0.00 | 0.00 | 0.00 | 35 | 1015.1 |
| 20260504173039 | 78 | 134 | 0.0 | 6.0 | 0.00 | 0.00 | 0.00 | 35 | 1015.2 |
| 20260504172537 | 78 | 62 | 0.0 | 1.0 | 0.00 | 0.00 | 0.00 | 36 | 1015.3 |
| 20260504172043 | 78 | 148 | 0.0 | 3.0 | 0.00 | 0.00 | 0.00 | 38 | 1015.4 |
| 20260504172038 | 78 | 280 | 0.0 | 1.0 | 0.00 | 0.00 | 0.00 | 36 | 1015.4 |
| 20260504171039 | 78 | 277 | 0.0 | 3.0 | 0.00 | 0.00 | 0.00 | 38 | 1015.5 |
| 20260504170538 | 77 | 0 | 0.0 | 3.0 | 0.00 | 0.00 | 0.00 | 35 | 1015.5 |
| 20260504150523 | 70 | 164 | 1.0 | 9.0 | 0.00 | 0.00 | 0.00 | 54 | 1016.6 |
| 20260504141025 | 65 | 144 | 1.0 | 6.0 | 0.00 | 0.00 | 0.00 | 61 | 1016.8 |
| 20260504141022 | 65 | 139 | 0.0 | 2.0 | 0.00 | 0.00 | 0.00 | 62 | 1016.8 |
| 20260504110307 | 0 | 0.0 | 0.0 | 0.00 | 0.00 | 0.00 | 1017.2 |